Powrót do katalogu

ICEYE-X71

AktywnyNaukaSSO
NORAD 68494·PAYLOAD·🇫🇮 Finland

Wystrzelony Mar 30, 2026 z Vandenberg Space Force Base

Loading…

Następne Przeloty (najbliższe 24 godziny)

TLE

ŚwieżeSource: Space-Track

Epoka: Sep 14, 2026, 13:58 UTC

1 68494U 26067CG  26257.58250323  .00008056  00000-0  68014-3 0  9993
2 68494  97.7725 214.7010 0004685  75.9139 284.2604 14.98374223 25075

Śledź ICEYE-X71 w czasie rzeczywistym z AllMySat

Download on the App Store